GW4822 Weather Reports


time (UTC)temp
C
wind
direction
speed
KPH
gust
KPH
rain 1hr
cm
rain 24hr
cm
rain mn
cm
humidity
%
barometer
mb
20260507161642 5 198 8.0 9.7 0.00 0.15 0.15 76 1020.7
20260507161139 5 162 3.2 14.5 0.00 0.15 0.15 78 1021.0
20260507160635 5 156 3.2 6.4 0.00 0.15 0.15 79 1020.8
20260507160132 5 155 9.7 11.3 0.00 0.15 0.15 77 1020.8
20260507155627 5 144 3.2 11.3 0.00 0.15 0.15 79 1020.6
20260507155124 5 166 4.8 11.3 0.00 0.15 0.15 78 1020.8
20260507154621 5 182 1.6 6.4 0.00 0.15 0.15 78 1020.7
20260507154118 5 157 4.8 9.7 0.00 0.15 0.15 77 1020.7
20260507153614 5 158 3.2 4.8 0.00 0.15 0.15 77 1020.7
20260507153111 5 158 3.2 12.9 0.00 0.15 0.15 76 1020.8
20260507152607 5 139 8.0 9.7 0.00 0.15 0.15 78 1020.7
20260507152103 5 178 3.2 3.2 0.00 0.15 0.15 81 1020.6
20260507151559 5 184 1.6 4.8 0.00 0.15 0.15 81 1020.6
20260507151057 5 184 1.6 3.2 0.00 0.15 0.15 82 1020.8
20260507150554 5 184 1.6 6.4 0.00 0.15 0.15 82 1020.7
20260507150051 5 189 3.2 4.8 0.00 0.15 0.15 81 1020.6
20260507145545 5 183 3.2 4.8 0.00 0.15 0.15 82 1020.8
20260507145044 5 175 1.6 11.3 0.00 0.15 0.15 83 1020.7
20260507144540 5 161 3.2 4.8 0.00 0.15 0.15 82 1020.6
20260507144038 5 188 3.2 3.2 0.00 0.15 0.15 82 1020.7
20260507143535 4 161 8.0 11.3 0.00 0.15 0.15 81 1020.7
20260507143032 4 186 4.8 4.8 0.00 0.15 0.15 81 1020.7
20260507142527 4 126 3.2 3.2 0.00 0.15 0.15 84 1020.8
20260507142024 4 195 3.2 4.8 0.00 0.15 0.15 83 1020.8
20260507141520 4 183 3.2 6.4 0.00 0.15 0.15 82 1020.7
20260507141017 3 188 1.6 4.8 0.00 0.15 0.15 82 1020.7
20260507140514 3 188 0.0 1.6 0.00 0.15 0.15 87 1020.8
20260507140012 3 188 1.6 3.2 0.00 0.15 0.15 87 1020.6
20260507135508 3 189 1.6 3.2 0.00 0.15 0.15 86 1020.7
20260507135006 3 188 0.0 1.6 0.13 0.15 0.15 87 1020.8
20260507134502 3 193 3.2 4.8 0.13 0.15 0.15 85 1020.8
20260507133958 3 222 6.4 11.3 0.00 0.13 0.13 83 1020.9
20260507133454 3 186 6.4 11.3 0.00 0.13 0.13 86 1021.0
20260507132953 3 186 8.0 11.3 0.00 0.13 0.13 86 1021.1
20260507132448 3 202 4.8 12.9 0.18 0.13 0.13 85 1021.0
20260507131945 3 191 8.0 12.9 0.18 0.13 0.13 85 1021.1
20260507131442 3 181 8.0 16.1 0.00 0.10 0.10 83 1021.0
20260507130939 3 182 9.7 12.9 0.00 0.10 0.10 79 1020.9
20260507130436 3 216 3.2 11.3 0.00 0.10 0.10 79 1021.0
20260507125935 3 207 3.2 6.4 0.00 0.10 0.10 80 1020.7
20260507125432 3 184 3.2 4.8 0.00 0.10 0.10 81 1020.7
20260507124930 4 226 6.4 11.3 0.00 0.10 0.10 79 1020.8
20260507124425 4 195 6.4 16.1 0.00 0.10 0.10 78 1020.7
20260507123924 5 233 6.4 9.7 0.00 0.10 0.10 74 1020.9
20260507123421 5 200 4.8 9.7 0.00 0.10 0.10 71 1020.9
20260507122917 5 162 3.2 6.4 0.00 0.10 0.10 72 1020.7
20260507122412 5 174 1.6 1.6 0.00 0.10 0.10 74 1020.6
20260507121909 5 174 1.6 4.8 0.00 0.10 0.10 73 1020.7
20260507121404 5 168 1.6 3.2 0.00 0.10 0.10 73 1020.5
20260507120901 5 163 4.8 4.8 0.00 0.10 0.10 73 1020.7
20260507120358 4 167 1.6 6.4 0.00 0.10 0.10 75 1020.5
20260507115854 4 188 1.6 3.2 0.00 0.10 0.10 76 1020.8
20260507115350 5 189 1.6 3.2 0.00 0.10 0.10 75 1020.7
20260507114846 5 188 1.6 3.2 0.00 0.10 0.10 75 1020.7
20260507114343 5 180 3.2 4.8 0.00 0.10 0.10 73 1020.9
20260507113840 5 175 3.2 6.4 0.00 0.10 0.10 73 1020.6
20260507113337 5 192 4.8 9.7 0.00 0.10 0.10 73 1020.8
20260507112835 5 184 9.7 14.5 0.00 0.10 0.10 75 1020.5
20260507112332 5 173 3.2 6.4 0.00 0.10 0.10 76 1020.8
20260507111830 5 180 3.2 4.8 0.00 0.10 0.10 77 1020.8
20260507111326 5 191 3.2 3.2 0.00 0.10 0.10 75 1020.5
20260507110822 5 190 3.2 4.8 0.00 0.10 0.10 75 1020.6
20260507110318 5 184 1.6 4.8 0.00 0.10 0.10 77 1020.7
20260507105815 5 191 3.2 4.8 0.00 0.10 0.10 78 1020.5
20260507105312 5 182 1.6 4.8 0.00 0.10 0.10 78 1020.8
20260507104809 5 186 3.2 3.2 0.00 0.10 0.10 78 1020.7
20260507104305 5 186 3.2 3.2 0.00 0.10 0.10 77 1020.4
20260507103801 5 189 3.2 6.4 0.00 0.10 0.10 78 1020.7
20260507103258 5 190 3.2 9.7 0.00 0.10 0.10 78 1020.4
20260507102754 5 196 1.6 3.2 0.00 0.10 0.10 82 1020.5
20260507102251 5 176 4.8 6.4 0.00 0.10 0.10 80 1020.5
20260507101747 5 189 3.2 4.8 0.00 0.10 0.10 80 1020.6
20260507101242 5 190 8.0 12.9 0.00 0.10 0.10 78 1020.5
20260507100740 4 192 4.8 9.7 0.00 0.10 0.10 79 1020.6
20260507100238 4 213 9.7 11.3 0.00 0.10 0.10 80 1020.4
20260507095736 4 201 4.8 6.4 0.00 0.10 0.10 84 1020.3
20260507095232 4 184 3.2 6.4 0.00 0.10 0.10 83 1020.3
20260507094729 4 204 4.8 11.3 0.00 0.10 0.10 81 1020.5
20260507094226 4 191 3.2 4.8 0.00 0.10 0.10 83 1020.6
20260507093723 4 190 3.2 6.4 0.00 0.10 0.10 81 1020.3
20260507093221 4 189 3.2 4.8 0.00 0.10 0.10 81 1020.4
20260507092718 4 156 4.8 9.7 0.00 0.10 0.10 81 1020.3
20260507092214 4 184 3.2 12.9 0.00 0.10 0.10 81 1020.4
20260507091711 4 203 8.0 12.9 0.00 0.10 0.10 83 1020.4
20260507091208 4 153 6.4 14.5 0.00 0.10 0.10 82 1020.3
20260507090703 4 204 9.7 14.5 0.00 0.10 0.10 84 1020.2
20260507090200 4 184 9.7 14.5 0.00 0.10 0.10 86 1020.3
20260507085657 4 244 8.0 14.5 0.13 0.10 0.10 87 1020.4
20260507085154 4 186 6.4 12.9 0.13 0.10 0.10 87 1020.0
20260507084651 4 211 9.7 20.9 0.00 0.08 0.08 88 1020.1
20260507084147 4 193 4.8 9.7 0.00 0.08 0.08 90 1020.0
20260507083644 5 192 9.7 11.3 0.18 0.08 0.08 87 1020.3
20260507083141 4 159 8.0 11.3 0.30 0.08 0.08 91 1019.9
20260507082637 4 183 3.2 4.8 0.13 0.05 0.05 93 1020.0
20260507082134 4 174 4.8 12.9 0.00 0.03 0.03 93 1020.1
20260507081630 4 167 1.6 12.9 0.00 0.03 0.03 92 1020.0
20260507081127 4 193 4.8 6.4 0.18 0.03 0.03 92 1020.1
20260507080623 4 160 1.6 6.4 0.18 0.03 0.03 93 1019.9
20260507080120 4 177 3.2 12.9 0.00 0.00 0.00 92 1020.0
20260507075620 4 153 3.2 11.3 0.00 0.56 0.56 91 1019.8
20260507075116 5 166 6.4 11.3 0.13 0.56 0.56 91 1019.9
20260507074613 4 137 9.7 14.5 0.13 0.56 0.56 89 1019.7
20260507074112 5 172 1.6 3.2 0.00 0.53 0.53 92 1019.5
20260507073607 5 127 9.7 12.9 0.18 0.53 0.53 90 1019.9
20260507073104 4 169 4.8 11.3 0.18 0.53 0.53 91 1019.7
20260507072601 4 173 6.4 12.9 0.13 0.51 0.51 92 1019.6
20260507072058 5 132 8.0 9.7 0.13 0.51 0.51 93 1019.5
20260507071556 4 128 3.2 9.7 0.18 0.48 0.48 92 1019.5
20260507071052 4 150 3.2 9.7 0.18 0.48 0.48 92 1019.5
20260507070549 4 127 3.2 6.4 0.00 0.46 0.46 93 1019.4
20260507070046 4 115 6.4 9.7 0.18 0.46 0.46 94 1019.4
20260507065542 4 151 3.2 9.7 0.18 0.46 0.46 94 1019.2
20260507065040 4 162 1.6 12.9 0.00 0.43 0.43 94 1019.1
20260507064538 5 149 4.8 11.3 0.13 0.43 0.43 95 1019.1
20260507064036 5 173 6.4 9.7 0.00 0.41 0.41 93 1019.1
20260507063533 5 175 4.8 11.3 0.00 0.41 0.41 92 1019.2
20260507063030 5 149 0.0 4.8 0.18 0.41 0.41 93 1019.2
20260507062527 5 159 1.6 3.2 0.30 0.41 0.41 93 1019.1
20260507062024 5 143 8.0 9.7 0.13 0.38 0.38 91 1019.0
20260507061522 5 159 1.6 3.2 0.00 0.36 0.36 92 1018.9
20260507061020 5 184 0.0 1.6 0.00 0.36 0.36 92 1019.0
20260507060517 5 188 1.6 3.2 0.18 0.36 0.36 92 1019.1
20260507060014 5 182 0.0 1.6 0.18 0.36 0.36 92 1018.8
20260507055514 5 224 3.2 9.7 0.13 0.33 0.33 91 1019.0
20260507055011 5 130 3.2 9.7 0.30 0.33 0.33 91 1018.9
20260507054507 5 166 3.2 6.4 0.30 0.30 0.30 91 1018.8
20260507054004 5 145 3.2 11.3 0.13 0.28 0.28 91 1018.7
20260507053502 5 168 3.2 6.4 0.00 0.25 0.25 89 1018.7
20260507053000 5 178 3.2 12.9 0.00 0.25 0.25 88 1018.4
20260507052458 5 171 1.6 3.2 0.00 0.25 0.25 90 1018.4
20260507051954 5 151 4.8 6.4 0.00 0.25 0.25 90 1018.4
20260507051452 5 159 3.2 4.8 0.00 0.25 0.25 91 1018.4
20260507050948 5 149 1.6 4.8 0.18 0.25 0.25 91 1018.2
20260507050445 5 131 3.2 6.4 0.00 0.23 0.23 91 1018.3
20260507045942 5 163 3.2 6.4 0.13 0.23 0.23 91 1018.2
20260507045438 5 147 3.2 6.4 0.13 0.23 0.23 89 1018.2
20260507044936 5 142 3.2 3.2 0.00 0.20 0.20 89 1018.3
20260507044432 5 162 1.6 4.8 0.00 0.20 0.20 89 1018.2
20260507043928 5 133 3.2 12.9 0.00 0.20 0.20 89 1018.3
20260507043425 5 161 3.2 6.4 0.00 0.20 0.20 90 1018.2
20260507042921 5 132 4.8 16.1 0.00 0.20 0.20 89 1018.2
20260507042418 5 94 3.2 9.7 0.00 0.20 0.20 90 1018.2
20260507041914 5 126 4.8 12.9 0.00 0.20 0.20 90 1018.0
20260507041411 5 118 8.0 12.9 0.00 0.20 0.20 90 1018.2
20260507040908 5 174 8.0 12.9 0.00 0.20 0.20 91 1017.8
20260507040404 5 138 4.8 14.5 0.18 0.20 0.20 90 1017.9
20260507035900 5 103 6.4 11.3 0.18 0.20 0.20 91 1018.3
20260507035356 5 147 4.8 12.9 0.13 0.18 0.18 90 1018.1
20260507034853 5 155 8.0 12.9 0.30 0.18 0.18 90 1017.9
20260507034350 6 127 4.8 14.5 0.36 0.15 0.15 87 1018.0
20260507033848 6 137 6.4 16.1 0.18 0.13 0.13 87 1017.9
20260507033346 6 233 3.2 11.3 0.13 0.10 0.10 88 1017.9
20260507032842 6 144 8.0 12.9 0.43 0.10 0.10 88 1017.9
20260507032339 6 179 3.2 9.7 0.30 0.08 0.08 87 1017.9
20260507031835 7 219 9.7 17.7 0.00 0.03 0.03 85 1018.0
20260507031332 7 176 9.7 14.5 0.00 0.03 0.03 74 1017.6
20260507030829 7 141 4.8 6.4 0.00 0.03 0.03 73 1017.5
20260507030326 7 178 4.8 11.3 0.00 0.03 0.03 71 1017.3
20260507025823 7 164 6.4 11.3 0.00 0.03 0.03 72 1017.2
20260507025320 8 173 4.8 14.5 0.00 0.03 0.03 70 1017.3
20260507024818 8 147 4.8 14.5 0.00 0.03 0.03 69 1017.4
20260507024315 8 125 6.4 11.3 0.00 0.03 0.03 69 1017.3
20260507023811 8 149 4.8 11.3 0.00 0.03 0.03 71 1017.2
20260507023307 8 157 4.8 16.1 0.00 0.03 0.03 70 1017.3
20260507022805 9 205 8.0 12.9 0.00 0.03 0.03 69 1017.1
20260507022301 8 144 4.8 17.7 0.00 0.03 0.03 71 1017.1
20260507021757 8 150 3.2 16.1 0.00 0.03 0.03 74 1017.1
20260507021253 8 101 11.3 17.7 0.00 0.03 0.03 68 1017.1
20260507020751 8 192 6.4 16.1 0.00 0.03 0.03 70 1017.1
20260507020248 8 180 11.3 14.5 0.00 0.03 0.03 71 1017.0
20260507015745 8 207 3.2 6.4 0.00 0.03 0.03 78 1017.0
20260507015242 7 191 3.2 4.8 0.00 0.03 0.03 80 1017.0
20260507014739 7 200 4.8 6.4 0.18 0.03 0.03 81 1017.0
20260507014235 7 163 1.6 4.8 0.18 0.03 0.03 82 1017.0
20260507013732 7 168 6.4 9.7 0.00 0.00 0.00 81 1017.0
20260507013230 7 189 1.6 4.8 0.00 0.00 0.00 85 1017.2
20260507012727 6 179 4.8 9.7 0.00 0.00 0.00 85 1017.2
20260507012222 6 211 6.4 6.4 0.00 0.00 0.00 86 1017.1
20260507011720 7 191 6.4 12.9 0.00 0.00 0.00 83 1017.2
20260507011216 7 195 11.3 22.5 0.00 0.00 0.00 80 1017.1
20260507010711 7 198 9.7 14.5 0.00 0.00 0.00 82 1017.1
20260507010207 7 201 6.4 16.1 0.00 0.00 0.00 82 1017.0
20260507005705 7 205 6.4 9.7 0.00 0.00 0.00 81 1016.9
20260507005201 7 191 1.6 9.7 0.00 0.00 0.00 80 1017.1
20260507004658 7 208 9.7 12.9 0.00 0.00 0.00 82 1017.0
20260507004155 6 212 6.4 9.7 0.00 0.00 0.00 86 1017.2
20260507003651 6 193 4.8 9.7 0.00 0.00 0.00 87 1016.9
20260507003151 6 236 8.0 12.9 0.00 0.00 0.00 84 1017.1
20260507002648 7 196 4.8 14.5 0.00 0.00 0.00 80 1017.0
20260507002144 7 188 4.8 9.7 0.00 0.00 0.00 80 1016.9
20260507001641 7 202 6.4 9.7 0.00 0.00 0.00 79 1016.7
20260507001139 7 180 9.7 12.9 0.00 0.00 0.00 77 1016.8
20260507000635 7 183 8.0 11.3 0.00 0.00 0.00 77 1016.7
20260507000130 7 215 3.2 6.4 0.00 0.00 0.00 77 1016.8
20260506235628 7 252 6.4 11.3 0.00 0.00 0.00 78 1016.9
20260506235127 7 201 3.2 11.3 0.00 0.00 0.00 80 1016.6
20260506234625 7 200 6.4 11.3 0.00 0.00 0.00 81 1016.7
20260506234122 7 182 4.8 11.3 0.00 0.00 0.00 82 1016.6
20260506233619 7 198 6.4 11.3 0.00 0.00 0.00 82 1016.4
20260506233116 7 226 6.4 12.9 0.00 0.00 0.00 80 1016.8
20260506232612 7 234 6.4 12.9 0.00 0.00 0.00 79 1016.7
20260506232107 7 205 4.8 14.5 0.00 0.00 0.00 81 1016.6
20260506231605 7 170 3.2 12.9 0.00 0.00 0.00 80 1016.7
20260506231103 7 215 6.4 11.3 0.00 0.00 0.00 80 1016.7
20260506230559 7 226 8.0 11.3 0.00 0.00 0.00 81 1016.5
20260506230056 7 262 4.8 11.3 0.00 0.00 0.00 79 1016.6
20260506225553 7 209 6.4 9.7 0.00 0.00 0.00 78 1016.6
20260506225049 7 228 4.8 6.4 0.00 0.00 0.00 80 1016.4
20260506224546 7 240 4.8 12.9 0.00 0.00 0.00 80 1016.5
20260506224043 7 199 3.2 11.3 0.00 0.00 0.00 78 1016.4
20260506223539 7 181 11.3 14.5 0.00 0.00 0.00 76 1016.4
20260506223035 7 270 8.0 11.3 0.00 0.00 0.00 75 1016.4
20260506222532 7 193 11.3 16.1 0.00 0.00 0.00 75 1016.4
20260506222029 7 196 9.7 16.1 0.00 0.00 0.00 75 1016.3
20260506221526 7 248 9.7 17.7 0.00 0.00 0.00 74 1016.1
20260506221024 7 172 11.3 20.9 0.00 0.00 0.00 74 1016.3
20260506220520 7 178 8.0 16.1 0.00 0.00 0.00 73 1016.0
20260506220016 7 184 6.4 16.1 0.00 0.00 0.00 75 1016.2
20260506215513 7 224 9.7 14.5 0.00 0.00 0.00 72 1016.2
20260506215008 8 189 9.7 17.7 0.00 0.00 0.00 70 1016.2
20260506214506 8 192 8.0 14.5 0.00 0.00 0.00 70 1016.1
20260506214003 8 198 14.5 22.5 0.00 0.00 0.00 69 1016.1
20260506213501 8 205 16.1 24.1 0.00 0.00 0.00 67 1016.1
20260506212957 8 209 6.4 14.5 0.00 0.00 0.00 68 1016.1
20260506212453 7 182 12.9 24.1 0.00 0.00 0.00 68 1015.9
20260506211948 7 209 12.9 17.7 0.00 0.00 0.00 67 1015.8
20260506211445 7 160 9.7 17.7 0.00 0.00 0.00 71 1015.8
20260506210942 7 189 17.7 20.9 0.00 0.00 0.00 68 1015.7
20260506210438 7 205 9.7 17.7 0.00 0.00 0.00 72 1015.7
20260506205936 7 191 9.7 22.5 0.00 0.00 0.00 73 1015.7
20260506205432 7 192 6.4 14.5 0.00 0.00 0.00 73 1015.8
20260506204928 7 184 8.0 17.7 0.00 0.00 0.00 75 1015.7
20260506204426 7 238 12.9 17.7 0.00 0.00 0.00 75 1015.6
20260506203923 7 196 4.8 14.5 0.00 0.00 0.00 71 1015.7
20260506203420 7 191 8.0 14.5 0.00 0.00 0.00 74 1015.6
20260506202917 6 195 8.0 14.5 0.00 0.00 0.00 75 1015.6
20260506202414 6 194 12.9 16.1 0.00 0.00 0.00 75 1015.6
20260506201911 7 213 11.3 17.7 0.00 0.00 0.00 75 1015.6
20260506201408 7 224 9.7 14.5 0.00 0.00 0.00 74 1015.5
20260506200904 7 178 6.4 17.7 0.00 0.00 0.00 74 1015.5
20260506200401 7 207 8.0 16.1 0.00 0.00 0.00 75 1015.5
20260506195857 7 184 8.0 17.7 0.00 0.00 0.00 74 1015.2
20260506195355 7 202 9.7 20.9 0.00 0.00 0.00 74 1015.3
20260506194851 7 171 8.0 17.7 0.00 0.00 0.00 74 1015.2
20260506194348 6 189 4.8 17.7 0.00 0.00 0.00 75 1015.2
20260506193845 6 210 14.5 22.5 0.00 0.00 0.00 76 1015.3
20260506193342 6 179 6.4 20.9 0.00 0.00 0.00 76 1015.4
20260506192838 7 180 6.4 14.5 0.00 0.00 0.00 75 1015.4
20260506192335 6 64 9.7 14.5 0.00 0.00 0.00 76 1015.4
20260506191832 6 159 4.8 9.7 0.00 0.00 0.00 76 1015.2
20260506191329 6 170 9.7 12.9 0.00 0.00 0.00 76 1015.3
20260506190826 6 155 3.2 12.9 0.00 0.00 0.00 77 1015.2
20260506190322 6 197 3.2 6.4 0.00 0.00 0.00 78 1015.2
20260506185819 6 196 6.4 6.4 0.00 0.00 0.00 78 1015.2
20260506185316 6 140 6.4 11.3 0.00 0.00 0.00 80 1015.1
20260506184813 6 182 6.4 11.3 0.00 0.00 0.00 80 1015.1
20260506184310 6 202 9.7 12.9 0.00 0.00 0.00 79 1015.2
20260506183807 6 204 4.8 6.4 0.00 0.00 0.00 76 1015.2
20260506183302 6 204 1.6 3.2 0.00 0.00 0.00 76 1015.1
20260506182800 6 192 3.2 6.4 0.00 0.00 0.00 77 1015.1
20260506182257 6 316 6.4 6.4 0.00 0.00 0.00 77 1015.2
20260506181755 6 192 3.2 4.8 0.00 0.00 0.00 77 1015.1
20260506181252 6 259 4.8 4.8 0.00 0.00 0.00 76 1015.2
20260506180749 6 203 3.2 9.7 0.00 0.00 0.00 77 1014.7
20260506180245 6 193 3.2 9.7 0.00 0.00 0.00 78 1014.9
20260506175741 6 222 3.2 4.8 0.00 0.00 0.00 77 1015.0
20260506175238 6 329 4.8 6.4 0.00 0.00 0.00 77 1014.7
20260506174736 6 259 9.7 12.9 0.00 0.00 0.00 78 1014.7
20260506174232 6 214 4.8 11.3 0.00 0.00 0.00 78 1014.7
20260506173731 6 214 6.4 9.7 0.00 0.00 0.00 78 1014.8
20260506173227 6 204 6.4 9.7 0.00 0.00 0.00 78 1014.9
20260506172724 6 193 3.2 9.7 0.00 0.00 0.00 77 1014.8
20260506172221 6 209 4.8 6.4 0.00 0.00 0.00 76 1014.7
20260506171718 6 188 0.0 4.8 0.00 0.00 0.00 75 1014.7
20260506171216 6 148 1.6 4.8 0.00 0.00 0.00 75 1014.8
20260506170713 6 286 3.2 6.4 0.00 0.00 0.00 75 1014.7
20260506170210 6 242 3.2 4.8 0.00 0.00 0.00 75 1014.5
20260506165708 6 186 1.6 3.2 0.00 0.00 0.00 76 1014.5
20260506165204 6 198 1.6 4.8 0.00 0.00 0.00 76 1014.6
20260506164702 6 194 3.2 3.2 0.00 0.00 0.00 76 1014.7
20260506164159 5 189 0.0 1.6 0.00 0.00 0.00 76 1014.3
20260506163655 5 188 0.0 1.6 0.00 0.00 0.00 76 1014.5
20260506163150 5 191 0.0 1.6 0.00 0.00 0.00 76 1014.5
20260506162646 6 178 1.6 1.6 0.00 0.00 0.00 76 1014.3
20260506162144 6 168 0.0 0.0 0.00 0.00 0.00 76 1014.1